Hourly Data Report for October 08, 2013

All times are specified in Local Standard Time (LST). Add 1 hour to adjust for Daylight Saving Time where and when it is observed.

OTTAWA INTL A
ONTARIO

45°19'00.000" N
75°40'00.000" W
114.90 m
6106001
71628
YOW

Download Data

Hourly Data (October 2013)
Hourly Data Report for October 8, 2013
Temp Definition
°C
Dew Point Temp Definition
°C
Rel Hum Definition
%
Wind Dir Definition
10's deg

Wind Spd Definition
km/h
Visibility Definition
km
Stn Press Definition
kPa
Hmdx Definition


Wind Chill Definition


Weather Definition


TIME
00:00 Legend Double Dagger 8.4 4.4 76 30 21 24.1 100.08     LegendNANA
01:00 Legend Double Dagger 7.2 3.8 79 27 20 24.1 100.23     Mainly Clear
02:00 Legend Double Dagger 5.7 3.4 85 25 13 24.1 100.32     LegendNANA
03:00 Legend Double Dagger 5.6 3.6 87 27 9 24.1 100.46     LegendNANA
04:00 Legend Double Dagger 4.9 3.2 89 24 15 24.1 100.57     Mainly Clear
05:00 Legend Double Dagger 3.3 2.1 92 25 10 24.1 100.68     LegendNANA
06:00 Legend Double Dagger 3.1 2.2 94 25 12 24.1 100.76     LegendNANA
07:00 Legend Double Dagger 4.3 3.1 92 25 12 24.1 100.91     Clear
08:00 Legend Double Dagger 7.4 4.0 79 28 17 24.1 101.02     LegendNANA
09:00 Legend Double Dagger 8.5 4.3 75 29 17 24.1 101.11     LegendNANA
10:00 Legend Double Dagger 10.0 4.6 69 29 11 24.1 101.14     Clear
11:00 Legend Double Dagger 11.3 4.1 61 24 18 24.1 101.22     LegendNANA
12:00 Legend Double Dagger 12.8 5.0 59 25 15 24.1 101.23     LegendNANA
13:00 Legend Double Dagger 13.1 3.5 52 28 16 24.1 101.18     Clear
14:00 Legend Double Dagger 14.1 3.6 49 29 14 24.1 101.21     LegendNANA
15:00 Legend Double Dagger 14.4 3.3 47 27 10 24.1 101.21     LegendNANA
16:00 Legend Double Dagger 14.4 3.0 46 24 13 24.1 101.22     Clear
17:00 Legend Double Dagger 12.7 4.0 55 22 9 24.1 101.29     LegendNANA
18:00 Legend Double Dagger 10.0 3.5 64 16 6 24.1 101.33     LegendNANA
19:00 Legend Double Dagger 9.8 3.6 65 17 8 24.1 101.36     Clear
20:00 Legend Double Dagger 9.3 3.3 66 18 10 24.1 101.40     LegendNANA
21:00 Legend Double Dagger 8.3 3.8 73 18 7 24.1 101.42     LegendNANA
22:00 Legend Double Dagger 7.1 4.4 83 17 10 24.1 101.41     Clear
23:00 Legend Double Dagger 7.1 4.8 85 18 11 24.1 101.41     LegendNANA

Notes on Data Quality.

Legend

  • E = Estimated
  • M = Missing
  • NA = Not Available
  • ‡ = Partner data that is not subject to review by the National Climate Archives
Date modified: